Regional Weather Roundup
Issued by NWS

Home | Current Version | Previous Version | Text Only | Print | Product List | Glossary On
Versions: 1 2 3 4 5 6 7 8 9 10 11 12 13 14 15 16 17 18 19 20 21 22 23 24 25 26 27 28 29 30 31 32 33 34 35 36 37 38 39 40 41 42 43 44 45 46 47 48 49 50
000
ASUS42 KKEY 210010
RWRKEY

FLORIDA REGIONAL WEATHER ROUNDUP FOR THE FLORIDA KEYS
NATIONAL WEATHER SERVICE KEY WEST FLORIDA
800 PM EDT SAT SEP 20 2014

...SOUTH FLORIDA AND THE KEYS...

CITY           SKY/WX    TMP DP  RH WIND       PRES   REMARKS
FORT MYERS     CLOUDY    76  75  97 CALM      29.92R
SW REGIONAL AP CLOUDY    77  62  59 CALM      29.93R
NAPLES         CLOUDY    79  73  82 W6        29.93S
MIAMI          CLOUDY    78  75  90 CALM      29.94R
WEST KENDALL   LGT RAIN  77  75  93 NW5       29.94R
HOMESTEAD      CLOUDY    77  74  89 NW2       29.94R
MARATHON       PTCLDY    82  75  79 NW9       29.94R
BOCA CHICA NAS MOCLDY    81  74  79 N14       29.93F
KEY WEST INTL  MOCLDY    82  75  79 N10       29.94S

...INTERNATIONAL WEATHER...

CITY           SKY/WX    TMP DP  RH WIND       PRES   REMARKS
NASSAU BAHAMAS MOCLDY    82  77  83 W5        29.95R HX  91
CANCUN MEXICO  CLOUDY    77  77 100 NE3       29.87S
COZUMEL MEXICO CLOUDY    77  77 100 E5        29.87S

ADJACENT COASTAL WATERS...

STATION/POSITION TIME  SKY/WX   TEMP    WIND        PRES    WAVE
                                AIR SEA DIR/SP/G            HT/PER
                 (UTC)          (F)     (DEG/KT/KT) (MB)    (FT/S)
PULASKI SHOAL LI 0000            79     360/ 12/ 13 1013.9R
SAND KEY         NOT AVBL
SOMBRERO KEY     0000            81     350/ 16/ 18 1014.5R
LONG KEY         2300            81 85  340/ 12/ 13 1014.1R
MOLASSES REEF    0000            80 86  360/ 10/ 12 1013.9R
FOWEY ROCKS      0000            80 85  310/  9/ 10 1014.3R
Buoy 42080       NOT AVBL

$$


USA.gov is the U.S. government's official web portal to all federal, state and local government web resources and services.